This is the latest recevied weather packets stored in our database for station/object EA1ZE. If no packets are shown the sender has not sent any weather packets the latest 10 day(s).
| Time | Temp. | Humidity | Pressure | Rain* | Wind** | Luminosity | Snow |
|---|---|---|---|---|---|---|---|
| 1777758372 | 13.33° C | 81% | 1013.7 hPa | 0 mm | - | - | - |
| 1777757478 | 13.33° C | 82% | 1013.8 hPa | 0 mm | - | - | - |
| 1777756557 | 13.33° C | 82% | 1013.6 hPa | 0 mm | - | - | - |
| 1777755652 | 13.89° C | 82% | 1013.6 hPa | 0 mm | - | - | - |
| 1777754752 | 13.89° C | 79% | 1013.4 hPa | 0 mm | - | - | - |
| 1777753871 | 14.44° C | 78% | 1013.2 hPa | 0 mm | - | - | - |
| 1777752951 | 15° C | 75% | 1013.1 hPa | 0 mm | - | - | - |
| 1777752056 | 15° C | 75% | 1012.9 hPa | 0 mm | - | - | - |
| 1777751152 | 15° C | 75% | 1012.8 hPa | 0 mm | - | - | - |
| 1777750249 | 15.56° C | 73% | 1013 hPa | 0 mm | - | - | - |
| 1777749349 | 15.56° C | 72% | 1012.8 hPa | 0.25 mm | - | - | - |
| 1777748449 | 16.11° C | 74% | 1012.7 hPa | 0.25 mm | - | - | - |
| 1777747548 | 16.11° C | 75% | 1012.6 hPa | 0.25 mm | - | - | - |
| 1777746648 | 16.11° C | 75% | 1012.5 hPa | 0 mm | - | - | - |
| 1777745747 | 16.11° C | 76% | 1012.4 hPa | 0 mm | - | - | - |
| 1777744846 | 15.56° C | 79% | 1012.4 hPa | 0.25 mm | - | - | - |
| 1777743945 | 15° C | 79% | 1012.4 hPa | 0.25 mm | - | - | - |
| 1777743046 | 15° C | 80% | 1012.3 hPa | 0.25 mm | - | - | - |
| 1777742144 | 15° C | 81% | 1012.4 hPa | 0.25 mm | - | - | - |
| 1777741252 | 15° C | 77% | 1012.7 hPa | 0 mm | - | - | - |
| 1777740345 | 15.56° C | 73% | 1012.5 hPa | 0 mm | - | - | - |
| 1777739457 | 16.11° C | 70% | 1012.5 hPa | 0 mm | - | - | - |
| 1777738558 | 16.11° C | 71% | 1012.4 hPa | 0.51 mm | - | - | - |
| 1777737642 | 15.56° C | 73% | 1012.5 hPa | 0.51 mm | - | - | - |
| 1777736743 | 16.11° C | 69% | 1012.7 hPa | 0.51 mm | - | - | - |
* Rain latest hour (hover to see other rain measurements)
** Current wind speed in m/s (hover to see current wind gust speed)